This is the latest recevied weather packets stored in our database for station/object K5BV. If no packets are shown the sender has not sent any weather packets the latest 10 day(s).
| Time | Temp. | Humidity | Pressure | Rain* | Wind** | Luminosity | Snow |
|---|---|---|---|---|---|---|---|
| 1777794159 | 17.78° C | 84% | 1022.2 hPa | 0 mm | - | - | - |
| 1777793559 | 18.33° C | 84% | 1022 hPa | 0 mm | - | - | - |
| 1777792960 | 17.78° C | 83% | 1022.2 hPa | 0 mm | - | - | - |
| 1777792360 | 17.78° C | 82% | 1022.4 hPa | 0 mm | - | - | - |
| 1777791759 | 18.33° C | 81% | 1022.4 hPa | 0 mm | - | - | - |
| 1777791160 | 18.33° C | 82% | 1022.4 hPa | 0 mm | - | - | - |
| 1777790559 | 17.78° C | 81% | 1022.3 hPa | 0 mm | - | - | - |
| 1777789959 | 18.89° C | 81% | 1022.4 hPa | 0 mm | - | - | - |
| 1777789359 | 18.33° C | 81% | 1022.2 hPa | 0 mm | - | - | - |
| 1777788759 | 18.89° C | 80% | 1022.3 hPa | 0 mm | - | - | - |
| 1777788159 | 18.89° C | 80% | 1022.4 hPa | 0 mm | - | - | - |
| 1777787560 | 18.89° C | 80% | 1022.3 hPa | 0 mm | - | - | - |
| 1777786959 | 18.89° C | 80% | 1022.3 hPa | 0 mm | - | - | - |
| 1777786360 | 18.89° C | 80% | 1022.2 hPa | 0 mm | - | - | - |
| 1777785760 | 18.33° C | 79% | 1022.2 hPa | 0 mm | - | - | - |
| 1777785159 | 18.33° C | 79% | 1022.1 hPa | 0 mm | - | - | - |
| 1777784563 | 18.33° C | 78% | 1022.1 hPa | 0 mm | - | - | - |
| 1777783959 | 18.89° C | 77% | 1022.1 hPa | 0 mm | - | - | - |
| 1777783359 | 18.89° C | 77% | 1022 hPa | 0 mm | - | - | - |
| 1777782759 | 19.44° C | 76% | 1022 hPa | 0 mm | - | - | - |
| 1777782160 | 19.44° C | 75% | 1021.8 hPa | 0 mm | - | - | - |
| 1777781559 | 19.44° C | 74% | 1021.8 hPa | 0 mm | - | - | - |
| 1777780959 | 19.44° C | 73% | 1021.8 hPa | 0 mm | - | - | - |
| 1777780359 | 20° C | 72% | 1021.7 hPa | 0 mm | - | - | - |
| 1777779760 | 20° C | 71% | 1021.7 hPa | 0 mm | - | - | - |
* Rain latest hour (hover to see other rain measurements)
** Current wind speed in m/s (hover to see current wind gust speed)